Location: Newark
(48.6800°N, 2.9300°W)
Time: 03:05:31
(UTC+00:00)

OTV 5 (USA 277) - Visible Passes

Search period start: 14 October 2019 00:00
Search period end: 24 October 2019 00:00
Orbit: 310 x 324 km, 54.5° (Epoch: 08 October)

Date Brightness Start Highest point End Pass type
(mag) Time Alt. Az. Time Alt. Az. Time Alt. Az.
14 Oct ? 05:09:48 19° NW 05:11:14 30° NNE 05:13:43 10° E visible
15 Oct ? 03:53:05 12° NE 03:53:05 12° NE 03:53:28 10° ENE visible
15 Oct ? 05:23:59 16° NW 05:25:56 47° NNE 05:28:36 10° E visible
16 Oct ? 04:07:19 18° NE 04:07:19 18° NE 04:08:22 10° ENE visible
16 Oct ? 05:38:13 13° WNW 05:40:33 88° SSW 05:43:17 10° ESE visible
17 Oct ? 04:21:37 27° ENE 04:21:37 27° ENE 04:23:18 10° E visible
17 Oct ? 05:52:31 10° WNW 05:55:03 37° SW 05:57:37 10° SSE visible
18 Oct ? 04:36:01 44° E 04:36:01 44° E 04:38:05 10° ESE visible
19 Oct ? 04:50:31 44° SSE 04:50:31 44° SSE 04:52:37 10° SE visible
20 Oct ? 05:05:08 22° SSW 05:05:08 22° SSW 05:06:42 10° SSE visible
